Weather History for KANW - January, 2014

Change the Weather History Date:

Friday, January 10, 2014

  Actual Average Record
Temperature  
Mean Temperature 36 °F -  
Max Temperature 44 °F 33 °F 60 °F (2012)
Min Temperature 27 °F 12 °F -11 °F (1997)
Degree Days  
Heating Degree Days 30    
Moisture  
Dew Point 26 °F    
Average Humidity 77    
Maximum Humidity 92    
Minimum Humidity 55    
Precipitation  
Precipitation 0.00 in - - ()
Sea Level Pressure  
Sea Level Pressure 29.58 in    
Wind  
Wind Speed 11 mph (West)    
Max Wind Speed 17 mph    
Max Gust Speed 21 mph    
Visibility 9 miles    
Events      
Averages and records for this station are not official NWS values.
T = Trace of Precipitation, MM = Missing Value Source: NWS Daily Summary

Daily Weather History Graph

Daily Weather History Graph

Search for Another Location

Airport or City:

Trip Planner

Search our weather history database for the weather conditions in past years. The results will help you decide how hot, cold, wet, or windy it might be!

Date:

Astronomy

Jan. 10, 2014 Rise Set
Actual Time 8:09 AM CST 5:26 PM CST
Civil Twilight 7:37 AM CST 5:57 PM CST
Nautical Twilight 7:02 AM CST 6:32 PM CST
Astronomical Twilight 6:28 AM CST 7:06 PM CST
Moon 1:33 PM CST (1/10) 3:16 AM CST (1/10)
Length of Visible Light 10h 20m
Length of Day
9h 17m
Waxing Gibbous, 75% of the Moon is Illuminated
Jan 10
Waxing Gibbous
Jan 15
Full
Jan 23
Last Quarter
Jan 30
New
Feb 6
First Quarter

Hourly Weather History & Observations

Time (CST) Temp. Windchill Dew Point Humidity Pressure Visibility Wind Dir Wind Speed Gust Speed Precip Events Conditions
12:15 AM 28.9 °F 16.9 °F 25.7 °F 88% 29.64 in 7.0 mi SSW 17.3 mph - N/A   Scattered Clouds
12:35 AM 29.3 °F 18.2 °F 26.1 °F 88% 29.63 in 10.0 mi SSW 15.0 mph 20.7 mph N/A   Mostly Cloudy
12:55 AM 29.7 °F 18.2 °F 26.1 °F 86% 29.62 in 7.0 mi SSW 16.1 mph - N/A   Mostly Cloudy
1:15 AM 29.3 °F 17.7 °F 25.7 °F 86% 29.62 in 10.0 mi SSW 16.1 mph 19.6 mph N/A   Mostly Cloudy
1:35 AM 29.3 °F 18.6 °F 26.1 °F 88% 29.61 in 7.0 mi SSW 13.8 mph 18.4 mph N/A   Scattered Clouds
1:55 AM 28.4 °F 17.5 °F 25.5 °F 89% 29.61 in 7.0 mi SSW 13.8 mph - N/A   Clear
2:15 AM 28.0 °F 17.0 °F 25.3 °F 90% 29.60 in 7.0 mi SSW 13.8 mph 19.6 mph N/A   Clear
2:35 AM 27.9 °F 17.8 °F 25.5 °F 91% 29.60 in 7.0 mi SSW 11.5 mph - N/A   Clear
2:55 AM 27.7 °F 16.1 °F 25.5 °F 92% 29.60 in 7.0 mi SSW 15.0 mph - N/A   Clear
3:15 AM 27.7 °F 17.6 °F 25.2 °F 90% 29.59 in 7.0 mi SSW 11.5 mph - N/A   Clear
3:35 AM 27.5 °F 18.0 °F 25.2 °F 91% 29.59 in 7.0 mi SW 10.4 mph - N/A   Clear
3:55 AM 27.7 °F 17.6 °F 25.3 °F 91% 29.58 in 7.0 mi SW 11.5 mph - N/A   Clear
4:15 AM 28.0 °F 18.1 °F 25.0 °F 88% 29.58 in 7.0 mi SSW 11.5 mph - N/A   Clear
4:35 AM 28.0 °F 17.5 °F 25.2 °F 89% 29.57 in 7.0 mi SW 12.7 mph - N/A   Clear
4:55 AM 28.0 °F 18.6 °F 24.8 °F 88% 29.57 in 7.0 mi SW 10.4 mph - N/A   Clear
5:15 AM 28.0 °F 19.3 °F 24.8 °F 88% 29.57 in 7.0 mi SW 9.2 mph - N/A   Clear
5:35 AM 28.0 °F 19.3 °F 24.8 °F 88% 29.56 in 10.0 mi SW 9.2 mph - N/A   Scattered Clouds
5:55 AM 28.8 °F 21.7 °F 25.3 °F 87% 29.55 in 10.0 mi WSW 6.9 mph - N/A   Mostly Cloudy
6:15 AM 29.3 °F 23.2 °F 25.3 °F 85% 29.55 in 10.0 mi WSW 5.8 mph - N/A   Overcast
6:35 AM 28.2 °F 21.0 °F 24.8 °F 87% 29.55 in 10.0 mi SW 6.9 mph - N/A   Mostly Cloudy
6:55 AM 27.3 °F 19.9 °F 24.6 °F 90% 29.55 in 10.0 mi WSW 6.9 mph - N/A   Scattered Clouds
7:15 AM 27.9 °F 22.6 °F 24.6 °F 88% 29.55 in 10.0 mi WSW 4.6 mph - N/A   Clear
7:35 AM 27.5 °F 22.2 °F 24.6 °F 89% 29.55 in 10.0 mi SW 4.6 mph - N/A   Clear
7:55 AM 27.7 °F 21.3 °F 25.2 °F 90% 29.55 in 10.0 mi WSW 5.8 mph - N/A   Clear
8:15 AM 28.4 °F 21.2 °F 25.5 °F 89% 29.56 in 10.0 mi WSW 6.9 mph - N/A   Mostly Cloudy
8:35 AM 28.8 °F 22.6 °F 25.5 °F 88% 29.56 in 10.0 mi West 5.8 mph - N/A   Scattered Clouds
8:55 AM 28.4 °F 21.2 °F 25.3 °F 88% 29.57 in 10.0 mi West 6.9 mph - N/A   Clear
9:15 AM 30.2 °F 23.4 °F 27.0 °F 88% 29.57 in 10.0 mi WNW 6.9 mph - N/A   Mostly Cloudy
9:35 AM 31.1 °F 23.7 °F 26.6 °F 83% 29.57 in 10.0 mi WNW 8.1 mph - N/A   Overcast
9:55 AM 32.0 °F 24.2 °F 27.5 °F 83% 29.57 in 10.0 mi WNW 9.2 mph - N/A   Mostly Cloudy
10:15 AM 33.1 °F 25.5 °F 28.4 °F 83% 29.57 in 10.0 mi NW 9.2 mph - N/A   Scattered Clouds
10:35 AM 35.6 °F 27.5 °F 28.8 °F 76% 29.57 in 10.0 mi NW 11.5 mph - N/A   Scattered Clouds
10:55 AM 37.4 °F 28.9 °F 28.4 °F 70% 29.57 in 10.0 mi NW 13.8 mph - N/A   Scattered Clouds
11:15 AM 36.3 °F 28.4 °F 27.9 °F 71% 29.57 in 10.0 mi NW 11.5 mph - N/A   Clear
11:35 AM 36.5 °F 27.4 °F 28.0 °F 71% 29.57 in 10.0 mi NW 15.0 mph - N/A   Scattered Clouds
11:55 AM 38.3 °F 29.3 °F 28.4 °F 68% 29.56 in 10.0 mi NW 16.1 mph 20.7 mph N/A   Mostly Cloudy
12:15 PM 39.6 °F 33.0 °F 29.3 °F 67% 29.55 in 10.0 mi NW 10.4 mph 18.4 mph N/A   Scattered Clouds
12:35 PM 42.6 °F 34.9 °F 29.1 °F 59% 29.55 in 10.0 mi NW 16.1 mph 20.7 mph N/A   Clear
12:55 PM 39.7 °F 31.9 °F 28.6 °F 64% 29.55 in 10.0 mi NW 13.8 mph 19.6 mph N/A   Scattered Clouds
1:15 PM 39.6 °F 32.5 °F 29.1 °F 66% 29.54 in 10.0 mi NW 11.5 mph - N/A   Scattered Clouds
1:35 PM 42.1 °F 35.2 °F 30.0 °F 62% 29.54 in 10.0 mi NNW 12.7 mph 16.1 mph N/A   Clear
1:55 PM 43.2 °F 35.6 °F 29.3 °F 58% 29.53 in 10.0 mi NW 16.1 mph - N/A   Clear
2:15 PM 42.8 °F 35.8 °F 29.5 °F 59% 29.54 in 10.0 mi NW 13.8 mph - N/A   Clear
2:35 PM 44.1 °F 37.7 °F 29.7 °F 57% 29.54 in 10.0 mi NNW 12.7 mph - N/A   Clear
2:55 PM 44.4 °F 37.9 °F 30.0 °F 57% 29.54 in 10.0 mi NW 13.8 mph - N/A   Clear
3:15 PM 44.2 °F 37.6 °F 30.0 °F 57% 29.55 in 10.0 mi NNW 13.8 mph - N/A   Clear
3:35 PM 44.4 °F 37.9 °F 29.7 °F 56% 29.55 in 10.0 mi NNW 13.8 mph - N/A   Clear
3:55 PM 43.9 °F 38.3 °F 29.7 °F 57% 29.56 in 10.0 mi NNW 10.4 mph - N/A   Clear
4:15 PM 43.7 °F 38.6 °F 29.7 °F 58% 29.57 in 10.0 mi NNW 9.2 mph - N/A   Clear
4:35 PM 42.8 °F 38.0 °F 28.6 °F 57% 29.57 in 10.0 mi NW 8.1 mph - N/A   Clear
4:55 PM 42.3 °F 36.3 °F 27.1 °F 55% 29.57 in 10.0 mi NW 10.4 mph - N/A   Scattered Clouds
5:15 PM 39.9 °F 34.5 °F 25.7 °F 57% 29.58 in 10.0 mi NW 8.1 mph - N/A   Scattered Clouds
5:35 PM 37.2 °F 31.2 °F 25.5 °F 63% 29.58 in 10.0 mi NW 8.1 mph - N/A   Clear
5:55 PM 35.6 °F 30.7 °F 24.8 °F 65% 29.60 in 10.0 mi NNW 5.8 mph - N/A   Clear
6:15 PM 35.4 °F 32.6 °F 25.0 °F 66% 29.60 in 10.0 mi NW 3.5 mph - N/A   Clear
6:35 PM 33.3 °F 30.2 °F 25.2 °F 72% 29.60 in 10.0 mi NW 3.5 mph - N/A   Clear
6:55 PM 32.5 °F 29.3 °F 24.6 °F 73% 29.60 in 10.0 mi WNW 3.5 mph - N/A   Clear
7:15 PM 31.8 °F 25.4 °F 23.9 °F 73% 29.61 in 10.0 mi West 6.9 mph - N/A   Clear
7:35 PM 30.7 °F 24.1 °F 23.7 °F 75% 29.61 in 10.0 mi West 6.9 mph - N/A   Clear
7:55 PM 30.4 °F 24.5 °F 23.2 °F 75% 29.62 in 10.0 mi West 5.8 mph - N/A   Clear
8:15 PM 27.7 °F 22.4 °F 22.1 °F 80% 29.62 in 10.0 mi West 4.6 mph - N/A   Clear
8:35 PM 27.1 °F 20.7 °F 21.6 °F 80% 29.62 in 10.0 mi WSW 5.8 mph - N/A   Clear
8:55 PM 29.1 °F 22.1 °F 22.3 °F 76% 29.62 in 10.0 mi WSW 6.9 mph - N/A   Clear
9:15 PM 28.0 °F 19.3 °F 21.9 °F 78% 29.63 in 10.0 mi WSW 9.2 mph - N/A   Clear
9:35 PM 28.0 °F 20.0 °F 22.3 °F 79% 29.63 in 10.0 mi West 8.1 mph - N/A   Clear
9:55 PM 27.9 °F 21.5 °F 21.6 °F 77% 29.63 in 10.0 mi WSW 5.8 mph - N/A   Clear
10:15 PM 28.0 °F 20.0 °F 22.1 °F 78% 29.63 in 10.0 mi WSW 8.1 mph - N/A   Mostly Cloudy
10:35 PM 28.6 °F 19.9 °F 23.0 °F 80% 29.64 in 10.0 mi WSW 9.2 mph - N/A   Overcast
10:55 PM 30.2 °F 24.3 °F 24.3 °F 79% 29.64 in 10.0 mi WSW 5.8 mph - N/A   Overcast
11:15 PM 30.9 °F 24.3 °F 25.0 °F 79% 29.64 in 10.0 mi West 6.9 mph - N/A   Overcast
11:35 PM 32.2 °F 25.0 °F 25.5 °F 76% 29.64 in 10.0 mi West 8.1 mph - N/A   Overcast
11:55 PM 32.9 °F 25.3 °F 25.7 °F 75% 29.64 in 10.0 mi West 9.2 mph - N/A   Overcast